QPF
0.00 0.00 0.00 0.00 0.00 0.00 0.00 0.00 0.01 0.01 0.00 0.00 0.00 0.00 0.01 0.01 0.01 0.02 0.01 0.00 0.00 0.00 0.00 0.00 0.00 0.00 0.00 0.00 0.00 0.00 0.00 0.00 0.00 0.00 0.00 0.00 0.00 0.00 0.00 0.00 0.00 0.00 0.00 0.00 0.00 0.00 0.00 0.00 0.00
0.00 0.00 0.00 0.00 0.00 0.00 0.00 0.00 0.00 0.00 0.00 0.00 0.00 0.00 0.00 0.00 0.00 0.00 0.00 0.00 0.00 0.00 0.00 0.00 0.00 0.00 0.00 0.00 0.00 0.00 0.00 0.00 0.00 0.00 0.00 0.00 0.00 0.00 0.00 0.00 0.00 0.00 0.00 0.00 0.00 0.00 0.00 0.00 0.00
0.00 0.00 0.00 0.00 0.00 0.00 0.00 0.01 0.01 0.00 0.00 0.00 0.00 0.00 0.00 0.00 0.00 0.00 0.00 0.00 0.00 0.00 0.00 0.00 0.00 0.00 0.00 0.00 0.00 0.00 0.00 0.00 0.00 0.00 0.00 0.00 0.00 0.00 0.00 0.00 0.00 0.00 0.00 0.00 0.00 0.00 0.00 0.00 0.00
0.00 0.00 0.00 0.00 0.00 0.00 0.00 0.02 0.02 0.00 0.00 0.00 0.00 0.00 0.00 0.00 0.00 0.00 0.00 0.00 0.00 0.00 0.00 0.00 0.00 0.00 0.00 0.00 0.00 0.00 0.00 0.00 0.00 0.00 0.00 0.00 0.00 0.00 0.00 0.00 0.00 0.00 0.00 0.00 0.00 0.00 0.00 0.00 0.00
0.00 0.00 0.00 0.00 0.00 0.00 0.00 0.01 0.03 0.01 0.00 0.00 0.00 0.00 0.00 0.00 0.00 0.00 0.00 0.00 0.00 0.00 0.00 0.00 0.00 0.00 0.00 0.00 0.00 0.00 0.00 0.00 0.00 0.00 0.00 0.00 0.00 0.00 0.00 0.00 0.00 0.00 0.00 0.00 0.00 0.00 0.00 0.00 0.00
0.00 0.00 0.00 0.00 0.00 0.00 0.00 0.01 0.02 0.01 0.01 0.01 0.01 0.00 0.00 0.00 0.00 0.00 0.00 0.00 0.00 0.00 0.00 0.00 0.00 0.00 0.00 0.00 0.00 0.00 0.00 0.00 0.00 0.00 0.00 0.00 0.00 0.00 0.00 0.00 0.00 0.00 0.00 0.00 0.00 0.00 0.00 0.00 0.00
0.00 0.00 0.00 0.00 0.00 0.00 0.01 0.01 0.01 0.01 0.01 0.01 0.01 0.01 0.00 0.00 0.00 0.00 0.00 0.00 0.00 0.00 0.00 0.00 0.00 0.00 0.00 0.00 0.00 0.00 0.00 0.00 0.00 0.00 0.00 0.00 0.00 0.00 0.00 0.00 0.00 0.00 0.00 0.00 0.00 0.00 0.00 0.00 0.00
0.00 0.00 0.00 0.00 0.00 0.00 0.01 0.02 0.02 0.02 0.02 0.01 0.01 0.01 0.00 0.00 0.00 0.00 0.00 0.00 0.00 0.00 0.00 0.00 0.00 0.00 0.00 0.00 0.00 0.00 0.00 0.00 0.00 0.00 0.00 0.00 0.00 0.00 0.00 0.00 0.00 0.00 0.00 0.00 0.00 0.00 0.00 0.00 0.00
0.00 0.00 0.00 0.00 0.00 0.00 0.01 0.02 0.02 0.01 0.02 0.01 0.00 0.01 0.01 0.00 0.00 0.01 0.01 0.01 0.01 0.00 0.00 0.00 0.00 0.00 0.00 0.00 0.00 0.00 0.00 0.00 0.00 0.00 0.00 0.00 0.00 0.00 0.00 0.00 0.00 0.00 0.00 0.00 0.00 0.00 0.00 0.00 0.00
0.00 0.00 0.00 0.00 0.00 0.00 0.00 0.01 0.01 0.01 0.01 0.01 0.01 0.01 0.01 0.01 0.01 0.01 0.01 0.01 0.01 0.00 0.00 0.00 0.00 0.00 0.00 0.00 0.00 0.00 0.00 0.00 0.00 0.00 0.00 0.00 0.00 0.00 0.00 0.00 0.01 0.00 0.00 0.00 0.00 0.00 0.00 0.00 0.00
0.00 0.00 0.00 0.00 0.00 0.00 0.00 0.01 0.01 0.01 0.02 0.02 0.01 0.04 0.03 0.01 0.01 0.01 0.01 0.01 0.01 0.01 0.00 0.00 0.00 0.00 0.00 0.00 0.00 0.00 0.00 0.00 0.00 0.00 0.00 0.00 0.01 0.01 0.02 0.01 0.01 0.01 0.00 0.00 0.00 0.00 0.00 0.00 0.00
0.00 0.00 0.00 0.00 0.00 0.00 0.00 0.00 0.01 0.01 0.01 0.03 0.03 0.07 0.08 0.02 0.01 0.02 0.03 0.02 0.02 0.02 0.01 0.00 0.00 0.00 0.00 0.00 0.00 0.00 0.00 0.00 0.00 0.00 0.00 0.00 0.01 0.02 0.03 0.02 0.01 0.01 0.01 0.00 0.00 0.00 0.00 0.00 0.00
0.00 0.00 0.00 0.00 0.00 0.00 0.00 0.00 0.00 0.01 0.01 0.02 0.03 0.05 0.06 0.02 0.01 0.03 0.04 0.05 0.06 0.06 0.02 0.01 0.00 0.00 0.00 0.00 0.00 0.00 0.00 0.00 0.00 0.00 0.00 0.00 0.01 0.01 0.01 0.01 0.01 0.01 0.01 0.01 0.01 0.00 0.00 0.00 0.00
0.00 0.00 0.00 0.00 0.00 0.00 0.00 0.00 0.00 0.00 0.00 0.01 0.02 0.02 0.04 0.03 0.02 0.02 0.05 0.09 0.11 0.09 0.03 0.01 0.01 0.00 0.00 0.00 0.00 0.00 0.00 0.00 0.00 0.00 0.00 0.00 0.00 0.00 0.00 0.00 0.00 0.00 0.00 0.00 0.00 0.00 0.00 0.00 0.00
0.00 0.00 0.00 0.00 0.00 0.00 0.00 0.00 0.00 0.00 0.00 0.00 0.01 0.01 0.03 0.05 0.02 0.02 0.03 0.07 0.11 0.12 0.04 0.02 0.03 0.02 0.01 0.00 0.00 0.00 0.00 0.00 0.00 0.00 0.00 0.00 0.00 0.00 0.00 0.00 0.00 0.00 0.00 0.00 0.00 0.00 0.00 0.00 0.00
0.00 0.00 0.00 0.00 0.00 0.00 0.00 0.00 0.00 0.00 0.00 0.00 0.00 0.00 0.01 0.02 0.02 0.02 0.03 0.04 0.07 0.11 0.06 0.06 0.05 0.04 0.02 0.00 0.00 0.00 0.00 0.00 0.00 0.00 0.00 0.00 0.00 0.00 0.00 0.00 0.00 0.00 0.00 0.00 0.00 0.00 0.00 0.00 0.00
0.00 0.00 0.00 0.00 0.00 0.00 0.00 0.00 0.00 0.00 0.00 0.00 0.00 0.00 0.01 0.02 0.02 0.02 0.04 0.07 0.13 0.18 0.13 0.08 0.07 0.04 0.02 0.01 0.00 0.00 0.00 0.00 0.00 0.00 0.00 0.00 0.00 0.00 0.00 0.01 0.01 0.01 0.00 0.00 0.00 0.00 0.00 0.00 0.00
0.00 0.00 0.00 0.00 0.00 0.00 0.00 0.00 0.00 0.00 0.00 0.00 0.00 0.00 0.00 0.01 0.01 0.01 0.02 0.05 0.17 0.26 0.19 0.12 0.08 0.03 0.02 0.01 0.00 0.00 0.00 0.00 0.00 0.01 0.01 0.01 0.02 0.02 0.01 0.01 0.01 0.01 0.01 0.01 0.00 0.00 0.00 0.00 0.00
0.00 0.00 0.00 0.00 0.00 0.00 0.00 0.00 0.00 0.00 0.00 0.00 0.00 0.00 0.00 0.00 0.00 0.01 0.01 0.05 0.19 0.25 0.19 0.10 0.06 0.04 0.03 0.02 0.01 0.01 0.01 0.01 0.02 0.04 0.06 0.07 0.07 0.05 0.04 0.03 0.02 0.02 0.01 0.01 0.00 0.00 0.00 0.00 0.00
0.00 0.00 0.00 0.00 0.00 0.00 0.00 0.00 0.00 0.00 0.00 0.00 0.00 0.00 0.00 0.00 0.00 0.00 0.00 0.02 0.09 0.14 0.12 0.09 0.10 0.10 0.09 0.08 0.06 0.05 0.05 0.06 0.09 0.13 0.14 0.14 0.11 0.08 0.06 0.04 0.03 0.02 0.01 0.01 0.00 0.00 0.00 0.00 0.00
0.00 0.00 0.00 0.00 0.00 0.00 0.00 0.00 0.00 0.00 0.00 0.00 0.00 0.00 0.00 0.00 0.00 0.00 0.00 0.01 0.05 0.10 0.14 0.13 0.16 0.20 0.23 0.24 0.20 0.17 0.17 0.19 0.22 0.23 0.22 0.18 0.13 0.09 0.05 0.04 0.03 0.02 0.01 0.00 0.00 0.00 0.00 0.00 0.00
0.00 0.00 0.00 0.00 0.00 0.00 0.00 0.00 0.00 0.00 0.00 0.00 0.00 0.00 0.00 0.00 0.00 0.00 0.00 0.01 0.02 0.05 0.10 0.15 0.21 0.33 0.48 0.60 0.61 0.51 0.41 0.37 0.35 0.33 0.28 0.21 0.14 0.09 0.06 0.05 0.03 0.02 0.00 0.00 0.00 0.00 0.00 0.00 0.00
0.00 0.00 0.00 0.00 0.00 0.00 0.00 0.00 0.00 0.00 0.00 0.00 0.00 0.00 0.00 0.00 0.00 0.00 0.01 0.02 0.05 0.09 0.16 0.23 0.32 0.46 0.62 0.69 0.73 0.65 0.51 0.45 0.42 0.39 0.29 0.18 0.11 0.08 0.06 0.04 0.04 0.02 0.01 0.00 0.00 0.00 0.00 0.00 0.00
0.00 0.00 0.00 0.00 0.00 0.00 0.00 0.00 0.00 0.00 0.00 0.00 0.00 0.00 0.00 0.00 0.00 0.00 0.01 0.05 0.11 0.18 0.25 0.32 0.37 0.46 0.55 0.55 0.50 0.43 0.41 0.38 0.34 0.27 0.19 0.12 0.08 0.05 0.04 0.03 0.03 0.01 0.00 0.00 0.00 0.00 0.00 0.00 0.00
0.00 0.00 0.00 0.00 0.00 0.00 0.00 0.00 0.00 0.00 0.00 0.00 0.00 0.00 0.00 0.00 0.00 0.01 0.04 0.09 0.15 0.22 0.27 0.28 0.30 0.29 0.29 0.29 0.28 0.24 0.23 0.19 0.16 0.14 0.11 0.07 0.04 0.03 0.02 0.02 0.01 0.01 0.00 0.00 0.00 0.00 0.00 0.00 0.00
0.00 0.00 0.00 0.00 0.00 0.00 0.00 0.00 0.00 0.00 0.00 0.00 0.00 0.00 0.01 0.01 0.02 0.04 0.07 0.11 0.17 0.21 0.22 0.21 0.17 0.13 0.09 0.09 0.11 0.12 0.10 0.09 0.08 0.06 0.04 0.03 0.02 0.01 0.01 0.00 0.00 0.00 0.00 0.00 0.00 0.00 0.00 0.00 0.00
0.00 0.00 0.00 0.00 0.00 0.00 0.00 0.00 0.00 0.00 0.00 0.00 0.01 0.01 0.02 0.04 0.05 0.09 0.12 0.15 0.17 0.17 0.15 0.10 0.06 0.05 0.04 0.03 0.04 0.04 0.04 0.05 0.04 0.03 0.02 0.02 0.01 0.01 0.00 0.00 0.00 0.00 0.00 0.00 0.00 0.00 0.00 0.00 0.00
0.00 0.00 0.00 0.00 0.00 0.00 0.00 0.00 0.00 0.00 0.00 0.00 0.01 0.02 0.03 0.05 0.06 0.10 0.13 0.15 0.14 0.11 0.08 0.06 0.04 0.03 0.02 0.02 0.01 0.02 0.02 0.03 0.03 0.02 0.01 0.01 0.01 0.00 0.00 0.00 0.00 0.00 0.00 0.00 0.00 0.00 0.00 0.00 0.00
0.00 0.00 0.00 0.00 0.00 0.00 0.00 0.00 0.00 0.00 0.00 0.00 0.01 0.02 0.04 0.06 0.09 0.13 0.16 0.14 0.11 0.08 0.06 0.04 0.03 0.01 0.01 0.01 0.02 0.02 0.03 0.02 0.02 0.01 0.01 0.01 0.00 0.00 0.00 0.00 0.00 0.00 0.00 0.00 0.00 0.00 0.00 0.00 0.00
0.00 0.00 0.00 0.00 0.00 0.00 0.00 0.00 0.01 0.01 0.01 0.01 0.02 0.05 0.10 0.17 0.21 0.23 0.20 0.13 0.08 0.05 0.03 0.02 0.01 0.01 0.01 0.02 0.02 0.03 0.02 0.02 0.01 0.01 0.01 0.01 0.00 0.00 0.00 0.00 0.00 0.00 0.00 0.00 0.00 0.00 0.00 0.00 0.00
MSLP
1010.90 1012.02 1013.32 1014.58 1015.53 1016.02 1015.97 1015.44 1014.57 1013.60 1012.74 1012.19 1012.02 1012.23 1012.71 1013.31 1013.86 1014.21 1014.30 1014.14 1013.81 1013.43 1013.13 1013.00 1013.09 1013.36 1013.76 1014.20 1014.59 1014.89 1015.07 1015.17 1015.25 1015.34 1015.50 1015.72 1016.01 1016.31 1016.59 1016.80 1016.92 1016.97 1016.98 1016.98 1016.99 1017.04 1017.13 1017.23 1017.32
1011.52 1012.77 1014.11 1015.27 1016.02 1016.22 1015.84 1014.98 1013.83 1012.63 1011.63 1011.01 1010.83 1011.07 1011.61 1012.28 1012.90 1013.34 1013.53 1013.49 1013.30 1013.07 1012.92 1012.93 1013.12 1013.48 1013.92 1014.37 1014.77 1015.06 1015.25 1015.36 1015.45 1015.57 1015.74 1015.97 1016.24 1016.51 1016.74 1016.90 1016.98 1017.01 1017.01 1017.02 1017.05 1017.12 1017.21 1017.31 1017.38
1012.23 1013.57 1014.87 1015.87 1016.38 1016.29 1015.61 1014.48 1013.12 1011.78 1010.72 1010.09 1009.94 1010.22 1010.81 1011.53 1012.20 1012.69 1012.95 1013.00 1012.92 1012.82 1012.80 1012.92 1013.21 1013.63 1014.11 1014.57 1014.95 1015.24 1015.42 1015.55 1015.65 1015.78 1015.96 1016.18 1016.41 1016.64 1016.81 1016.91 1016.96 1016.97 1016.97 1017.00 1017.07 1017.17 1017.29 1017.39 1017.46
1012.96 1014.30 1015.50 1016.31 1016.56 1016.21 1015.29 1013.98 1012.52 1011.16 1010.12 1009.55 1009.47 1009.82 1010.44 1011.18 1011.85 1012.35 1012.64 1012.74 1012.75 1012.74 1012.83 1013.04 1013.40 1013.85 1014.33 1014.77 1015.14 1015.40 1015.58 1015.70 1015.82 1015.96 1016.14 1016.34 1016.55 1016.72 1016.84 1016.90 1016.91 1016.91 1016.93 1016.99 1017.10 1017.25 1017.40 1017.52 1017.58
1013.60 1014.87 1015.90 1016.49 1016.51 1015.94 1014.88 1013.51 1012.05 1010.78 1009.87 1009.42 1009.45 1009.85 1010.50 1011.21 1011.85 1012.32 1012.59 1012.72 1012.77 1012.84 1013.00 1013.28 1013.67 1014.13 1014.59 1015.00 1015.32 1015.54 1015.70 1015.82 1015.95 1016.10 1016.28 1016.48 1016.66 1016.80 1016.88 1016.90 1016.90 1016.90 1016.94 1017.03 1017.19 1017.37 1017.55 1017.69 1017.75
1014.08 1015.20 1016.01 1016.36 1016.17 1015.46 1014.34 1013.01 1011.69 1010.60 1009.88 1009.62 1009.76 1010.23 1010.87 1011.53 1012.09 1012.49 1012.72 1012.84 1012.93 1013.05 1013.27 1013.59 1014.00 1014.44 1014.86 1015.21 1015.47 1015.65 1015.77 1015.89 1016.02 1016.20 1016.40 1016.61 1016.79 1016.91 1016.96 1016.97 1016.95 1016.95 1017.00 1017.13 1017.31 1017.53 1017.73 1017.87 1017.93
1014.34 1015.24 1015.80 1015.90 1015.53 1014.73 1013.64 1012.45 1011.34 1010.51 1010.04 1009.97 1010.24 1010.74 1011.34 1011.92 1012.38 1012.69 1012.87 1012.98 1013.09 1013.27 1013.55 1013.91 1014.33 1014.75 1015.12 1015.40 1015.59 1015.71 1015.80 1015.91 1016.06 1016.26 1016.49 1016.72 1016.92 1017.04 1017.09 1017.08 1017.06 1017.06 1017.12 1017.25 1017.45 1017.67 1017.88 1018.03 1018.08
1014.38 1015.01 1015.29 1015.16 1014.63 1013.80 1012.79 1011.79 1010.94 1010.38 1010.17 1010.29 1010.66 1011.17 1011.71 1012.18 1012.53 1012.75 1012.88 1012.99 1013.15 1013.39 1013.73 1014.15 1014.59 1015.00 1015.32 1015.53 1015.65 1015.72 1015.77 1015.87 1016.04 1016.27 1016.54 1016.80 1017.02 1017.16 1017.22 1017.21 1017.18 1017.17 1017.22 1017.35 1017.54 1017.76 1017.96 1018.09 1018.14
1014.23 1014.57 1014.57 1014.21 1013.56 1012.72 1011.83 1011.03 1010.45 1010.16 1010.17 1010.44 1010.87 1011.37 1011.82 1012.18 1012.41 1012.54 1012.64 1012.77 1012.99 1013.32 1013.75 1014.24 1014.71 1015.11 1015.40 1015.57 1015.63 1015.65 1015.68 1015.77 1015.95 1016.21 1016.52 1016.82 1017.07 1017.23 1017.30 1017.30 1017.26 1017.24 1017.27 1017.38 1017.54 1017.74 1017.92 1018.04 1018.09
1013.96 1014.02 1013.75 1013.19 1012.44 1011.61 1010.84 1010.24 1009.88 1009.82 1010.01 1010.37 1010.82 1011.26 1011.61 1011.85 1011.98 1012.05 1012.13 1012.30 1012.60 1013.03 1013.56 1014.12 1014.64 1015.06 1015.34 1015.48 1015.51 1015.50 1015.51 1015.59 1015.78 1016.06 1016.39 1016.73 1017.01 1017.20 1017.28 1017.29 1017.25 1017.22 1017.23 1017.31 1017.44 1017.60 1017.76 1017.88 1017.93
1013.64 1013.45 1012.96 1012.24 1011.41 1010.61 1009.94 1009.49 1009.32 1009.41 1009.71 1010.11 1010.54 1010.89 1011.13 1011.25 1011.29 1011.32 1011.41 1011.63 1012.00 1012.52 1013.14 1013.79 1014.36 1014.81 1015.10 1015.23 1015.25 1015.23 1015.23 1015.32 1015.51 1015.80 1016.15 1016.50 1016.80 1017.02 1017.13 1017.15 1017.12 1017.09 1017.09 1017.15 1017.25 1017.40 1017.54 1017.65 1017.71
1013.36 1012.97 1012.31 1011.48 1010.61 1009.83 1009.25 1008.92 1008.85 1009.03 1009.36 1009.75 1010.11 1010.36 1010.49 1010.51 1010.48 1010.47 1010.57 1010.83 1011.27 1011.87 1012.56 1013.26 1013.88 1014.36 1014.67 1014.82 1014.85 1014.84 1014.85 1014.94 1015.14 1015.43 1015.78 1016.15 1016.46 1016.70 1016.84 1016.90 1016.90 1016.89 1016.90 1016.95 1017.05 1017.17 1017.30 1017.41 1017.48
1013.16 1012.65 1011.88 1011.00 1010.12 1009.37 1008.85 1008.59 1008.58 1008.77 1009.07 1009.40 1009.65 1009.80 1009.83 1009.76 1009.67 1009.64 1009.75 1010.03 1010.50 1011.12 1011.84 1012.56 1013.21 1013.72 1014.06 1014.24 1014.32 1014.34 1014.38 1014.49 1014.69 1014.98 1015.33 1015.70 1016.02 1016.29 1016.47 1016.58 1016.63 1016.67 1016.72 1016.79 1016.89 1017.01 1017.14 1017.26 1017.34
1013.08 1012.51 1011.71 1010.83 1009.98 1009.28 1008.79 1008.55 1008.53 1008.68 1008.90 1009.12 1009.26 1009.30 1009.23 1009.10 1008.97 1008.92 1009.01 1009.29 1009.74 1010.35 1011.04 1011.75 1012.39 1012.92 1013.29 1013.54 1013.68 1013.77 1013.86 1014.01 1014.23 1014.52 1014.86 1015.22 1015.56 1015.86 1016.09 1016.27 1016.40 1016.51 1016.62 1016.73 1016.86 1017.00 1017.13 1017.25 1017.35
1013.11 1012.54 1011.77 1010.93 1010.14 1009.49 1009.04 1008.78 1008.71 1008.75 1008.85 1008.93 1008.94 1008.87 1008.73 1008.55 1008.40 1008.33 1008.40 1008.64 1009.04 1009.58 1010.21 1010.86 1011.47 1012.00 1012.43 1012.75 1012.99 1013.18 1013.36 1013.57 1013.82 1014.12 1014.46 1014.82 1015.17 1015.51 1015.80 1016.06 1016.28 1016.48 1016.67 1016.84 1017.01 1017.16 1017.31 1017.42 1017.52
1013.20 1012.67 1011.98 1011.24 1010.54 1009.95 1009.50 1009.20 1009.02 1008.92 1008.85 1008.77 1008.65 1008.47 1008.27 1008.06 1007.90 1007.82 1007.87 1008.05 1008.38 1008.82 1009.36 1009.93 1010.51 1011.05 1011.54 1011.96 1012.32 1012.65 1012.95 1013.24 1013.55 1013.87 1014.22 1014.58 1014.94 1015.31 1015.67 1016.01 1016.33 1016.63 1016.90 1017.14 1017.34 1017.52 1017.66 1017.77 1017.86
1013.29 1012.85 1012.28 1011.66 1011.07 1010.54 1010.08 1009.70 1009.39 1009.10 1008.83 1008.56 1008.29 1008.01 1007.76 1007.54 1007.38 1007.32 1007.35 1007.49 1007.74 1008.08 1008.52 1009.02 1009.57 1010.13 1010.70 1011.25 1011.76 1012.24 1012.68 1013.09 1013.46 1013.83 1014.18 1014.55 1014.93 1015.32 1015.73 1016.15 1016.56 1016.95 1017.29 1017.59 1017.83 1018.01 1018.15 1018.25 1018.33
1013.32 1012.99 1012.57 1012.11 1011.64 1011.16 1010.69 1010.21 1009.72 1009.22 1008.72 1008.24 1007.80 1007.42 1007.12 1006.91 1006.79 1006.75 1006.79 1006.91 1007.11 1007.39 1007.75 1008.20 1008.73 1009.34 1010.00 1010.69 1011.37 1012.02 1012.62 1013.15 1013.60 1014.00 1014.38 1014.74 1015.13 1015.55 1016.00 1016.47 1016.95 1017.40 1017.81 1018.14 1018.40 1018.59 1018.72 1018.80 1018.87
1013.24 1013.05 1012.80 1012.52 1012.18 1011.77 1011.27 1010.67 1009.99 1009.24 1008.49 1007.78 1007.17 1006.68 1006.35 1006.15 1006.08 1006.11 1006.20 1006.35 1006.53 1006.78 1007.11 1007.53 1008.08 1008.75 1009.52 1010.35 1011.20 1012.02 1012.77 1013.41 1013.94 1014.39 1014.77 1015.14 1015.52 1015.94 1016.41 1016.92 1017.44 1017.93 1018.37 1018.73 1018.99 1019.17 1019.28 1019.35 1019.40
1013.02 1013.00 1012.95 1012.86 1012.67 1012.33 1011.80 1011.09 1010.20 1009.21 1008.20 1007.25 1006.46 1005.87 1005.50 1005.34 1005.35 1005.47 1005.65 1005.86 1006.09 1006.36 1006.69 1007.13 1007.71 1008.45 1009.31 1010.27 1011.27 1012.23 1013.10 1013.84 1014.44 1014.91 1015.30 1015.65 1016.01 1016.42 1016.89 1017.41 1017.95 1018.46 1018.91 1019.27 1019.53 1019.68 1019.77 1019.83 1019.87
1012.66 1012.82 1013.00 1013.12 1013.10 1012.85 1012.32 1011.50 1010.44 1009.21 1007.95 1006.78 1005.82 1005.13 1004.73 1004.62 1004.72 1004.96 1005.26 1005.58 1005.89 1006.22 1006.60 1007.07 1007.69 1008.48 1009.42 1010.47 1011.56 1012.61 1013.56 1014.36 1014.99 1015.47 1015.85 1016.18 1016.52 1016.91 1017.36 1017.88 1018.41 1018.92 1019.36 1019.71 1019.94 1020.08 1020.15 1020.19 1020.23
1012.17 1012.55 1012.97 1013.33 1013.50 1013.36 1012.86 1011.98 1010.77 1009.35 1007.88 1006.53 1005.42 1004.65 1004.24 1004.18 1004.38 1004.75 1005.19 1005.64 1006.06 1006.47 1006.90 1007.41 1008.06 1008.87 1009.84 1010.91 1012.03 1013.11 1014.09 1014.90 1015.52 1015.99 1016.35 1016.65 1016.96 1017.32 1017.75 1018.24 1018.76 1019.25 1019.68 1020.01 1020.22 1020.34 1020.39 1020.42 1020.46
1011.60 1012.20 1012.88 1013.48 1013.86 1013.87 1013.43 1012.53 1011.24 1009.70 1008.09 1006.61 1005.40 1004.58 1004.18 1004.18 1004.48 1004.98 1005.56 1006.13 1006.66 1007.14 1007.62 1008.16 1008.80 1009.59 1010.52 1011.55 1012.63 1013.67 1014.60 1015.37 1015.96 1016.40 1016.72 1016.99 1017.27 1017.60 1018.01 1018.48 1018.98 1019.46 1019.86 1020.17 1020.37 1020.47 1020.51 1020.53 1020.56
1010.98 1011.80 1012.73 1013.58 1014.16 1014.34 1014.00 1013.15 1011.87 1010.28 1008.62 1007.08 1005.84 1005.01 1004.64 1004.70 1005.10 1005.70 1006.40 1007.07 1007.68 1008.22 1008.72 1009.24 1009.83 1010.55 1011.38 1012.32 1013.29 1014.23 1015.07 1015.76 1016.28 1016.67 1016.95 1017.19 1017.44 1017.76 1018.15 1018.60 1019.08 1019.54 1019.94 1020.23 1020.42 1020.51 1020.54 1020.55 1020.57
1010.38 1011.40 1012.54 1013.59 1014.38 1014.72 1014.52 1013.78 1012.56 1011.04 1009.41 1007.91 1006.70 1005.92 1005.61 1005.73 1006.20 1006.89 1007.66 1008.40 1009.06 1009.61 1010.09 1010.56 1011.07 1011.66 1012.36 1013.14 1013.96 1014.75 1015.46 1016.05 1016.49 1016.82 1017.06 1017.28 1017.52 1017.83 1018.21 1018.65 1019.12 1019.56 1019.95 1020.23 1020.41 1020.49 1020.52 1020.51 1020.52
1009.86 1011.01 1012.30 1013.51 1014.45 1014.95 1014.90 1014.30 1013.24 1011.84 1010.35 1008.97 1007.87 1007.18 1006.95 1007.15 1007.68 1008.41 1009.21 1009.97 1010.63 1011.16 1011.60 1011.98 1012.37 1012.82 1013.36 1013.96 1014.60 1015.24 1015.81 1016.28 1016.65 1016.92 1017.13 1017.34 1017.57 1017.88 1018.25 1018.69 1019.14 1019.58 1019.95 1020.22 1020.39 1020.47 1020.49 1020.47 1020.46
1009.46 1010.68 1012.03 1013.32 1014.35 1014.96 1015.05 1014.63 1013.75 1012.57 1011.28 1010.09 1009.17 1008.62 1008.50 1008.76 1009.33 1010.08 1010.87 1011.61 1012.23 1012.71 1013.07 1013.36 1013.63 1013.94 1014.31 1014.75 1015.22 1015.70 1016.14 1016.52 1016.81 1017.04 1017.24 1017.44 1017.68 1017.98 1018.36 1018.78 1019.22 1019.64 1019.99 1020.25 1020.42 1020.49 1020.49 1020.46 1020.41
1009.22 1010.42 1011.74 1013.01 1014.05 1014.72 1014.94 1014.68 1014.02 1013.09 1012.07 1011.13 1010.43 1010.05 1010.05 1010.38 1010.97 1011.70 1012.46 1013.14 1013.70 1014.11 1014.39 1014.58 1014.75 1014.94 1015.18 1015.48 1015.82 1016.18 1016.52 1016.81 1017.06 1017.26 1017.45 1017.66 1017.90 1018.21 1018.57 1018.98 1019.40 1019.78 1020.11 1020.35 1020.50 1020.56 1020.55 1020.49 1020.41
1009.20 1010.28 1011.47 1012.63 1013.61 1014.28 1014.56 1014.45 1014.02 1013.36 1012.62 1011.97 1011.51 1011.33 1011.45 1011.84 1012.43 1013.13 1013.82 1014.43 1014.91 1015.25 1015.46 1015.59 1015.69 1015.80 1015.96 1016.16 1016.42 1016.69 1016.97 1017.22 1017.44 1017.64 1017.83 1018.04 1018.29 1018.59 1018.94 1019.31 1019.69 1020.04 1020.33 1020.54 1020.66 1020.69 1020.66 1020.58 1020.46
1009.38 1010.28 1011.28 1012.25 1013.09 1013.70 1014.01 1014.03 1013.80 1013.40 1012.96 1012.59 1012.37 1012.38 1012.62 1013.07 1013.65 1014.29 1014.91 1015.44 1015.85 1016.12 1016.29 1016.39 1016.45 1016.53 1016.65 1016.82 1017.04 1017.27 1017.52 1017.75 1017.96 1018.17 1018.37 1018.59 1018.84 1019.12 1019.44 1019.77 1020.09 1020.38 1020.62 1020.78 1020.87 1020.87 1020.81 1020.69 1020.54
Thickness
5802 5804 5804 5795 5769 5746 5747 5768 5792 5796 5801 5815 5819 5810 5798 5790 5780 5771 5793 5798 5793 5788 5784 5783 5782 5781 5778 5776 5774 5772 5770 5767 5765 5763 5761 5759 5758 5756 5755 5754 5752 5751 5750 5748 5747 5746 5745 5744 5744
5799 5803 5795 5777 5749 5733 5746 5778 5791 5798 5807 5819 5819 5813 5802 5793 5797 5792 5792 5793 5791 5787 5783 5782 5780 5779 5776 5774 5772 5770 5767 5765 5762 5760 5758 5756 5755 5753 5752 5750 5749 5747 5746 5744 5743 5742 5741 5740 5739
5797 5798 5778 5760 5746 5740 5759 5787 5796 5804 5813 5819 5814 5813 5803 5795 5795 5792 5793 5791 5787 5784 5782 5780 5779 5776 5774 5772 5770 5767 5765 5762 5760 5758 5756 5754 5752 5750 5749 5747 5746 5744 5743 5741 5739 5738 5737 5736 5735
5789 5779 5768 5750 5748 5761 5776 5792 5800 5801 5807 5817 5815 5803 5805 5811 5805 5798 5794 5790 5785 5782 5780 5778 5776 5774 5772 5769 5767 5764 5762 5759 5757 5755 5753 5751 5749 5748 5746 5745 5743 5741 5740 5738 5736 5735 5734 5733 5732
5781 5763 5749 5740 5751 5772 5790 5802 5806 5802 5805 5813 5812 5795 5793 5809 5809 5800 5794 5790 5785 5781 5779 5776 5774 5771 5768 5766 5764 5761 5759 5757 5754 5752 5750 5749 5747 5745 5744 5742 5741 5739 5737 5735 5734 5732 5731 5730 5729
5762 5751 5735 5733 5754 5781 5796 5809 5808 5804 5805 5811 5808 5794 5789 5805 5802 5797 5794 5789 5786 5781 5777 5774 5771 5768 5765 5763 5760 5758 5756 5754 5752 5750 5748 5746 5745 5743 5742 5740 5738 5736 5735 5733 5732 5730 5729 5728 5726
5755 5746 5739 5749 5760 5776 5798 5812 5805 5802 5804 5809 5811 5792 5789 5798 5803 5800 5795 5790 5784 5780 5775 5772 5769 5766 5763 5761 5758 5756 5753 5751 5750 5748 5746 5744 5742 5740 5739 5737 5735 5734 5732 5730 5729 5727 5726 5725 5723
5767 5751 5749 5755 5764 5773 5800 5808 5810 5806 5807 5820 5818 5796 5788 5800 5806 5801 5793 5788 5782 5777 5774 5771 5767 5765 5762 5759 5756 5754 5752 5749 5747 5745 5743 5741 5739 5737 5736 5734 5732 5730 5729 5727 5726 5724 5723 5721 5720
5774 5745 5740 5757 5770 5780 5798 5798 5806 5817 5815 5818 5821 5815 5814 5813 5808 5798 5788 5782 5777 5774 5772 5770 5767 5763 5761 5758 5755 5753 5750 5748 5745 5742 5740 5738 5736 5734 5732 5730 5728 5727 5725 5724 5722 5721 5719 5718 5718
5762 5741 5754 5777 5787 5788 5795 5800 5806 5807 5803 5805 5810 5816 5817 5813 5806 5797 5788 5780 5776 5773 5772 5771 5768 5764 5760 5757 5755 5752 5749 5746 5744 5741 5739 5736 5734 5732 5730 5728 5726 5724 5722 5721 5719 5717 5716 5715 5715
5765 5759 5774 5787 5796 5796 5794 5802 5811 5802 5793 5802 5805 5809 5812 5809 5805 5801 5795 5789 5784 5780 5776 5773 5769 5766 5762 5759 5755 5752 5749 5746 5744 5741 5739 5736 5733 5731 5729 5726 5724 5722 5720 5718 5717 5715 5713 5713 5712
5769 5775 5783 5791 5800 5797 5795 5802 5805 5806 5810 5822 5825 5823 5815 5809 5807 5806 5801 5795 5790 5784 5781 5777 5772 5767 5764 5760 5756 5753 5750 5747 5744 5742 5740 5736 5733 5731 5729 5726 5725 5722 5720 5717 5716 5714 5712 5710 5709
5766 5773 5788 5796 5798 5799 5802 5803 5806 5808 5821 5824 5825 5822 5816 5813 5810 5810 5810 5804 5797 5791 5787 5783 5777 5771 5767 5762 5757 5754 5751 5748 5746 5744 5741 5738 5735 5732 5730 5727 5725 5723 5720 5717 5714 5713 5710 5708 5706
5772 5777 5784 5791 5794 5802 5800 5805 5806 5808 5820 5816 5815 5815 5816 5813 5810 5807 5806 5803 5799 5795 5791 5786 5780 5775 5770 5764 5760 5757 5753 5749 5746 5744 5742 5739 5735 5732 5729 5725 5723 5721 5719 5716 5713 5710 5708 5705 5703
5775 5768 5773 5785 5791 5799 5800 5792 5805 5813 5813 5808 5809 5812 5813 5812 5810 5808 5810 5808 5805 5800 5795 5788 5782 5776 5771 5767 5762 5759 5755 5750 5747 5744 5741 5737 5734 5730 5725 5720 5717 5716 5714 5711 5708 5705 5702 5699 5696
5761 5755 5750 5773 5787 5797 5788 5772 5805 5814 5804 5799 5803 5806 5808 5809 5811 5813 5812 5809 5805 5798 5794 5790 5786 5776 5771 5768 5764 5760 5755 5750 5746 5741 5737 5733 5729 5724 5719 5713 5709 5707 5705 5702 5699 5696 5692 5688 5686
5738 5733 5742 5760 5785 5790 5783 5774 5804 5816 5803 5796 5799 5802 5805 5805 5807 5811 5811 5808 5804 5799 5794 5790 5787 5779 5773 5767 5763 5759 5753 5747 5742 5736 5731 5727 5723 5718 5713 5707 5702 5699 5695 5692 5690 5684 5681 5677 5675
5720 5729 5736 5746 5773 5777 5769 5773 5799 5813 5808 5800 5801 5802 5802 5803 5809 5812 5810 5808 5803 5798 5795 5792 5788 5780 5772 5764 5757 5751 5745 5740 5735 5729 5723 5719 5714 5709 5703 5697 5692 5688 5683 5679 5676 5671 5668 5665 5662
5732 5728 5727 5747 5770 5764 5761 5768 5789 5806 5807 5803 5802 5802 5801 5807 5814 5811 5807 5803 5797 5793 5790 5788 5783 5777 5769 5760 5752 5742 5733 5728 5723 5717 5712 5707 5703 5698 5692 5685 5680 5676 5671 5666 5664 5659 5655 5651 5650
5727 5720 5724 5743 5766 5763 5757 5762 5781 5795 5802 5808 5807 5804 5804 5803 5804 5803 5801 5797 5794 5790 5787 5782 5777 5771 5763 5755 5745 5734 5724 5715 5708 5703 5699 5694 5690 5686 5681 5675 5668 5664 5659 5654 5650 5647 5641 5637 5635
5722 5719 5725 5732 5752 5757 5754 5748 5763 5785 5800 5808 5811 5813 5812 5808 5804 5802 5798 5794 5789 5784 5780 5774 5766 5757 5750 5743 5733 5721 5711 5704 5696 5690 5683 5679 5675 5672 5668 5663 5657 5652 5647 5641 5636 5633 5629 5623 5619
5714 5738 5739 5738 5730 5723 5740 5714 5744 5766 5779 5791 5798 5802 5807 5808 5804 5801 5797 5790 5785 5778 5771 5764 5757 5747 5738 5729 5720 5708 5699 5691 5684 5679 5673 5668 5663 5658 5654 5650 5645 5640 5634 5629 5624 5619 5616 5612 5605
5728 5747 5741 5739 5730 5720 5727 5715 5725 5754 5764 5778 5790 5797 5802 5801 5798 5795 5791 5785 5777 5768 5760 5754 5747 5736 5727 5716 5706 5697 5688 5681 5675 5670 5665 5659 5653 5649 5644 5638 5633 5627 5621 5616 5611 5607 5603 5599 5593
5745 5742 5735 5721 5709 5698 5717 5714 5712 5741 5757 5769 5783 5789 5792 5791 5789 5784 5779 5772 5763 5756 5748 5740 5732 5723 5715 5706 5695 5688 5680 5674 5668 5663 5657 5651 5644 5638 5633 5627 5621 5615 5609 5604 5599 5595 5591 5586 5581
5738 5712 5689 5689 5677 5686 5714 5712 5714 5745 5760 5766 5768 5770 5773 5773 5769 5764 5758 5752 5745 5738 5731 5724 5718 5709 5704 5694 5686 5680 5675 5670 5664 5657 5651 5643 5635 5627 5621 5615 5609 5603 5597 5592 5587 5583 5578 5573 5568
5727 5715 5685 5674 5672 5684 5709 5705 5720 5743 5756 5761 5758 5755 5752 5749 5747 5742 5737 5731 5724 5717 5710 5705 5699 5693 5688 5682 5675 5669 5664 5659 5653 5647 5641 5633 5625 5617 5610 5604 5597 5591 5586 5581 5576 5570 5566 5561 5555
5724 5714 5717 5695 5688 5680 5687 5709 5725 5735 5739 5742 5738 5735 5731 5728 5725 5721 5716 5711 5704 5697 5690 5685 5681 5676 5672 5667 5663 5657 5651 5645 5639 5633 5627 5619 5611 5604 5598 5592 5585 5580 5574 5569 5563 5557 5552 5547 5541
5738 5729 5700 5684 5669 5663 5681 5691 5688 5704 5714 5720 5719 5716 5713 5710 5707 5702 5697 5692 5686 5681 5673 5668 5663 5659 5656 5652 5648 5642 5636 5630 5624 5618 5611 5604 5597 5591 5585 5579 5573 5567 5561 5554 5548 5541 5536 5530 5524
5725 5721 5707 5686 5681 5666 5663 5668 5693 5695 5703 5707 5706 5703 5698 5694 5690 5686 5681 5678 5673 5668 5662 5655 5648 5642 5640 5636 5632 5626 5620 5615 5609 5603 5596 5589 5583 5577 5571 5565 5558 5551 5544 5537 5530 5524 5518 5512 5506
5720 5712 5700 5681 5676 5673 5662 5655 5685 5686 5691 5695 5693 5689 5683 5678 5674 5669 5665 5662 5658 5654 5648 5645 5637 5629 5626 5623 5618 5612 5606 5601 5594 5588 5581 5575 5568 5562 5555 5549 5541 5533 5525 5518 5512 5507 5501 5496 5490